Location: Beuvrequen
(50.8014°N, 1.6652°E)
Time: 13:55:40
(UTC+00:00)

Lacrosse 4 Rocket - Pass Details

Date: 05 June 2022
Orbit: 541 x 611 km, 68.0° (Epoch: 30 June)

Event Time Altitude Azimuth Distance (km) Brightness Sun altitude
Exits shadow 02:05:47 16° 208° (SSW) 1,538 2.9 -10.9°
Maximum altitude 02:09:08 80° 122° (ESE) 582 1.4 -10.7°
Drops below altitude 10° 02:13:17 10° 37° (NE) 1,854 5.6 -10.3°
Sets 02:15:29 0° 36° (NE) 2,744 7.2 -10.1°
